Volver al catálogo

SL-8 DEB

ActivoLEO
NORAD 39839·DEBRIS·🇷🇺 Russia

Lanzado Feb 12, 1991 desde Plesetsk Cosmodrome

Loading…

Próximos Pases (próximas 24 horas)

TLE

EnvejeciendoSource: Space-Track

Época: Sep 12, 2026, 16:53 UTC

1 39839U 91009DX  26255.70373791 -.00000014  00000-0  20336-4 0  9992
2 39839  73.8346  11.6675 0091412 203.5448 156.1405 12.49453894915404

Sigue SL-8 DEB en tiempo real con AllMySat

Download on the App Store